[[{"header":{"parameterUnit":"m.s-1","parameterCategory":1,"la1":30.2991,"la2":30.254,"lo1":-89.0895,"lo2":-89.0444,"dy":0.0017,"dx":0.0017,"nx":28,"ny":28,"refTime":"2025-11-20T09:00:00:Z","depth":0,"parameterNumber":2,"parameterNumberName":"U-component_of_WINDS"},"data":[0,0,0,0,0,0,0,0,0,0,0,0,0,0,0,0,0,0,0,0,0,0,0,0,0,0,0,0,0,0,0,0,0,0,0,0,0,0,0,0,0,0,0,0,0,0,0,0,0,0,0,0,0,0,0,0,0,0,-2.9611,-2.9611,0,-2.9622,-2.9622,-2.9622,-2.9541,-2.9539,-2.9537,-2.9535,-2.9546,-2.9549,-2.9551,0,0,0,0,0,0,0,0,0,0,0,0,0,-2.9524,-2.9526,-2.9611,-2.9611,-2.9611,-2.9622,-2.9622,-2.9622,-2.9542,-2.9539,-2.9536,-2.9534,-2.9545,-2.9548,-2.9551,0,0,0,0,0,0,0,0,0,0,0,0,0,-2.9551,-2.9527,-2.9611,-2.9573,-2.9569,-2.9622,-2.9622,-2.9622,-2.9542,-2.9539,-2.9536,-2.9532,-2.9544,-2.9548,-2.9551,-2.9641,0,0,-2.9562,-2.9564,0,0,0,0,0,0,0,0,-2.955,-2.9554,-2.9578,-2.9575,-2.9572,-2.9577,-2.9595,-2.9628,-2.9543,-2.9553,-2.9535,-2.9531,-2.9559,-2.9561,-2.9571,-2.9642,-2.9642,-2.9563,-2.9565,-2.9567,-2.9568,0,0,0,0,0,0,0,-2.9548,-2.9553,-2.9615,-2.9579,-2.9575,-2.9556,-2.9556,-2.9601,-2.9575,-2.9552,-2.9546,-2.9548,-2.9557,-2.9567,-2.957,-2.9642,-2.9563,-2.9566,-2.9568,-2.957,-2.9791,-2.9794,0,0,0,0,0,0,-2.9551,-2.9552,-2.9615,-2.9615,-2.9552,-2.956,-2.956,-2.9579,-2.9574,-2.957,-2.9551,-2.9544,-2.9563,-2.9566,-2.957,-2.9676,-2.9566,-2.957,-2.9572,-2.9787,-2.9792,-2.9796,0,0,0,0,0,0,-2.9549,-2.9557,-2.9614,-2.9582,-2.9588,-2.9565,-2.9586,-2.9581,-2.9591,-2.9573,-2.9569,-2.9567,-2.956,-2.9565,-2.9625,-2.9676,-2.9571,-2.9575,-2.9783,-2.9788,-2.9794,-2.9889,0,0,0,0,0,0,-2.9547,-2.9557,-2.959,-2.9584,-2.959,-2.9668,-2.959,-2.9583,-2.9597,-2.9589,-2.9587,-2.9583,-2.9558,-2.962,-2.9628,-2.9679,-2.9578,-2.9778,-2.9785,-2.9792,-2.9881,-2.9897,-2.991,0,0,0,0,0,-2.9544,-2.9616,-2.9592,-2.96,-2.9631,-2.9671,-2.9675,-2.9644,-2.9602,-2.9635,-2.9625,-2.9583,-2.9669,-2.9627,-2.9636,-2.9688,-2.9775,-2.9783,-2.9791,-2.9874,-2.9894,-2.991,0,0,0,0,0,0,-2.9628,-2.9614,-2.9588,-2.9659,-2.9667,-2.9657,-2.9698,-2.9665,-2.9685,-2.9676,-2.9638,-2.9638,-2.9705,-2.9702,-2.9655,-2.9776,-2.9715,-2.9725,-2.9775,-2.9793,-2.9808,-2.9806,-2.9581,0,0,0,0,0,-2.9655,-2.9688,-2.9674,-2.9739,-2.9744,-2.9721,-2.9737,-2.9714,-2.972,-2.9723,-2.9716,-2.9725,-2.9754,-2.9773,-2.9799,-2.9881,-2.988,-2.9922,-2.9936,-2.9949,-2.9958,-3.0003,-3.0022,-2.9823,-2.9823,-2.9823,0,0,-2.971,-2.9707,-2.973,-2.9756,-2.9759,-2.9795,-2.9724,-2.9765,-2.9792,-2.9729,-2.9785,-2.9781,-2.9788,-2.986,-2.9891,-2.986,-3.0013,-2.9959,-2.9969,-2.9972,-3.0014,-3.0033,-3.0049,-2.9829,-2.9828,-2.9827,0,0,-2.983,-2.983,-2.9885,-2.989,-2.9897,-2.9881,-2.9895,-2.9891,-2.9886,-2.9942,-2.9897,-2.9929,-2.9979,-2.9986,-2.9997,-3.0124,-3.0087,-3.0134,-3.021,-3.0255,-3.0271,-3.0284,-3.033,-3.0347,-3.0143,-3.0143,-3.0144,0,-2.9897,-2.995,-2.9917,-2.9962,-2.9975,-2.9922,-2.9978,-2.9985,-2.9999,-3.001,-2.9975,-3.0039,-3.004,-3.0114,-3.0145,-3.0155,-3.017,-3.0132,-3.0271,-3.0284,-3.0297,-3.034,-3.0358,-3.0149,-3.0148,-3.0148,-3.0147,0,-3.0034,-3.0071,-3.0115,-3.0131,-3.0149,-3.02,-3.0176,-3.0199,-3.0175,-3.0164,-3.0223,-3.0223,-3.0248,-3.0265,-3.0241,-3.0336,-3.0317,-3.0277,-3.0215,-3.0322,-3.0362,-3.0378,-3.0157,-3.0155,-3.0153,-3.0152,0,0,-3.0202,-3.0203,-3.0219,-3.0227,-3.0232,-3.0261,-3.031,-3.0336,-3.0357,-3.037,-3.0411,-3.0456,-3.0421,-3.0433,-3.041,-3.045,-3.0552,-3.0405,-3.0405,-3.0433,-3.0659,-3.0688,-3.0707,-3.0529,-3.0532,-3.0534,-3.0658,0,-3.0319,-3.0402,-3.0376,-3.046,-3.0495,-3.0447,-3.049,-3.0499,-3.0491,-3.052,-3.0512,-3.0545,-3.0495,-3.0503,-3.054,-3.0532,-3.0597,-3.0523,-3.0567,-3.0569,-3.0565,-3.0728,-3.0758,-3.0875,-3.0674,-3.0676,-3.0678,0,-3.0465,-3.0486,-3.0574,-3.0575,-3.0589,-3.0628,-3.0651,-3.068,-3.0689,-3.0681,-3.0697,-3.0667,-3.0717,-3.0656,-3.0725,-3.0675,-3.0692,-3.0692,-3.0696,-3.0697,-3.0629,-3.0735,-3.0911,-3.0929,-3.0702,-3.0701,-3.0699,0,-3.0581,-3.063,-3.0689,-3.0697,-3.0701,-3.073,-3.0733,-3.0739,-3.0757,-3.0778,-3.079,-3.0816,-3.083,-3.0852,-3.0831,-3.0788,-3.0904,-3.0841,-3.0899,-3.09,-3.0924,-3.0923,-3.1106,-3.0937,-3.0936,-3.0936,-3.0936,0,-3.0713,-3.0769,-3.0741,-3.0778,-3.084,-3.0811,-3.0873,-3.0871,-3.0878,-3.0914,-3.0875,-3.0909,-3.088,-3.0913,-3.0897,-3.0957,-3.0964,-3.0959,-3.0954,-3.0963,-3.0963,-3.0972,-3.0963,-3.0941,-3.094,-3.0939,-3.0938,0,-3.0851,-3.0834,-3.0896,-3.0896,-3.0897,-3.0943,-3.0942,-3.0977,-3.0968,-3.1014,-3.1024,-3.1009,-3.1046,-3.1028,-3.1066,-3.1056,-3.1134,-3.1118,-3.1131,-3.1126,-3.1186,-3.1181,-3.1381,-3.1406,-3.1221,-3.1223,-3.1225,0,-3.0936,-3.0978,-3.0983,-3.1004,-3.101,-3.1045,-3.1064,-3.1039,-3.106,-3.1077,-3.111,-3.1144,-3.1169,-3.1231,-3.1225,-3.1255,-3.1239,-3.1308,-3.1243,-3.1251,-3.124,-3.1238,-3.1243,-3.132,-3.1322,-3.1324,-3.1325,0,-3.1089,-3.1079,-3.1108,-3.1135,-3.1159,-3.1179,-3.1196,-3.1216,-3.1191,-3.1218,-3.1256,-3.1276,-3.1316,-3.1351,-3.1378,-3.1382,-3.135,-3.1346,-3.1361,-3.1369,-3.1375,-3.1373,-3.1165,-3.1341,-3.1339,-3.1338,-3.1337,-3.1337,-3.1202,-3.1238,-3.1248,-3.1282,-3.1293,-3.131,-3.1343,-3.1339,-3.137,-3.1401,-3.1385,-3.143,-3.1442,-3.1474,-3.1483,-3.1519,-3.1492,-3.1513,-3.1519,-3.1524,-3.1533,-3.137,-3.1524,-3.1523,-3.1523,-3.1522,-3.1522,0,-3.1353,-3.1358,-3.139,-3.1415,-3.1443,-3.1412,-3.143,-3.1455,-3.1495,-3.1509,-3.1536,-3.1581,-3.1615,-3.1613,-3.1645,-3.1674,-3.1661,-3.1683,-3.168,-3.1682,-3.1555,-3.1538,-3.1694,-3.1694,-3.1694,-3.1694,-3.1694,-3.1694,-3.1435,-3.1495,-3.1487,-3.1553,-3.1557,-3.1601,-3.1614,-3.1631,-3.1642,-3.1694,-3.1723,-3.1721,-3.173,-3.1763,-3.1794,-3.1792,-3.1806,-3.1834,-3.1828,-3.1708,-3.1691,-3.1675,-3.1659,-3.1837,-3.1838,-3.1952,-3.1953,-3.1954]},{"header":{"parameterUnit":"m.s-1","parameterCategory":1,"la1":30.2991,"la2":30.254,"lo1":-89.0895,"lo2":-89.0444,"dy":0.0017,"dx":0.0017,"nx":28,"ny":28,"refTime":"2025-11-20T09:00:00:Z","depth":0,"parameterNumber":3,"parameterNumberName":"V-component_of_WINDS"},"data":[0,0,0,0,0,0,0,0,0,0,0,0,0,0,0,0,0,0,0,0,0,0,0,0,0,0,0,0,0,0,0,0,0,0,0,0,0,0,0,0,0,0,0,0,0,0,0,0,0,0,0,0,0,0,0,0,0,0,1.6403,1.6403,0,1.6409,1.6409,1.6409,1.642,1.642,1.6421,1.6421,1.6424,1.6424,1.6424,0,0,0,0,0,0,0,0,0,0,0,0,0,1.64,1.64,1.6403,1.6403,1.6404,1.6409,1.6409,1.641,1.642,1.642,1.6421,1.6421,1.6425,1.6424,1.6424,0,0,0,0,0,0,0,0,0,0,0,0,0,1.6403,1.64,1.6403,1.641,1.641,1.6409,1.6409,1.641,1.642,1.642,1.6421,1.6421,1.6425,1.6424,1.6424,1.6417,0,0,1.6424,1.6424,0,0,0,0,0,0,0,0,1.6403,1.6404,1.6409,1.6409,1.641,1.6414,1.641,1.6412,1.642,1.6416,1.6421,1.6421,1.6421,1.6421,1.6421,1.6417,1.6417,1.6424,1.6424,1.6424,1.6424,0,0,0,0,0,0,0,1.6403,1.6403,1.6406,1.6409,1.641,1.6412,1.6413,1.641,1.6417,1.6417,1.6417,1.6418,1.6421,1.6421,1.6421,1.6417,1.6424,1.6424,1.6424,1.6423,1.6409,1.6409,0,0,0,0,0,0,1.6402,1.6403,1.6406,1.6406,1.6407,1.6412,1.6413,1.6413,1.6417,1.6418,1.6418,1.6419,1.6421,1.6422,1.6422,1.6415,1.6424,1.6423,1.6423,1.641,1.6409,1.6409,0,0,0,0,0,0,1.6402,1.6402,1.6405,1.6405,1.6405,1.6411,1.6411,1.6413,1.6413,1.6418,1.6419,1.6417,1.6422,1.6422,1.6419,1.6415,1.6423,1.6423,1.641,1.641,1.6409,1.64,0,0,0,0,0,0,1.6402,1.6402,1.6399,1.6405,1.6405,1.6402,1.6411,1.6412,1.6413,1.6414,1.6417,1.6418,1.6422,1.6419,1.6418,1.6415,1.6423,1.641,1.641,1.6409,1.64,1.6399,1.6398,0,0,0,0,0,1.6402,1.6395,1.6399,1.6399,1.6402,1.6402,1.6402,1.6408,1.6412,1.641,1.6413,1.6418,1.6415,1.6418,1.6418,1.6414,1.6411,1.641,1.6409,1.6401,1.6399,1.6398,0,0,0,0,0,0,1.6388,1.6396,1.64,1.6396,1.6398,1.6404,1.6401,1.6406,1.6406,1.6407,1.6413,1.6414,1.641,1.6412,1.6415,1.6408,1.6414,1.6413,1.6407,1.6406,1.6405,1.6404,1.6423,0,0,0,0,0,1.6385,1.6385,1.6392,1.6387,1.6388,1.6394,1.6394,1.6399,1.6401,1.6402,1.6405,1.6407,1.6407,1.6406,1.6406,1.6401,1.6402,1.6398,1.6397,1.6396,1.6395,1.6394,1.6392,1.6407,1.6407,1.6407,0,0,1.6377,1.6382,1.6381,1.6384,1.6387,1.6386,1.6395,1.6394,1.6393,1.6402,1.6399,1.6402,1.6404,1.64,1.6399,1.6402,1.6391,1.6395,1.6394,1.6394,1.6393,1.6391,1.639,1.6407,1.6407,1.6407,0,0,1.6364,1.6367,1.6364,1.6367,1.6372,1.6376,1.6376,1.6381,1.6384,1.6382,1.6388,1.6388,1.6387,1.6389,1.639,1.638,1.6385,1.638,1.6373,1.6372,1.6371,1.637,1.6367,1.6366,1.6379,1.6379,1.6379,0,1.6354,1.6355,1.6362,1.6361,1.6363,1.6372,1.6369,1.6371,1.6375,1.6376,1.6379,1.638,1.6382,1.638,1.6378,1.6378,1.6377,1.6379,1.637,1.6369,1.6369,1.6366,1.6365,1.6379,1.6379,1.6379,1.6379,0,1.6343,1.6343,1.634,1.6345,1.6347,1.6345,1.6352,1.6352,1.6357,1.6361,1.636,1.6363,1.6365,1.6365,1.6368,1.6363,1.6365,1.6369,1.6375,1.6366,1.6364,1.6363,1.6378,1.6378,1.6378,1.6378,0,0,1.6319,1.6331,1.633,1.6333,1.6339,1.6339,1.6339,1.6341,1.6342,1.6345,1.6344,1.6345,1.6349,1.635,1.6355,1.6354,1.6347,1.6358,1.6358,1.6357,1.6342,1.6339,1.6338,1.635,1.635,1.635,1.6343,0,1.6308,1.6308,1.6316,1.6313,1.6314,1.6324,1.6323,1.6327,1.6331,1.6333,1.6337,1.6338,1.6343,1.6344,1.6344,1.6348,1.6344,1.6349,1.635,1.635,1.6349,1.6337,1.6333,1.6326,1.6342,1.6341,1.6341,0,1.6294,1.6298,1.6296,1.6305,1.6305,1.6304,1.6309,1.631,1.6315,1.6318,1.6321,1.6326,1.6326,1.6332,1.6332,1.6335,1.6336,1.6339,1.6339,1.6339,1.6345,1.6337,1.6324,1.6323,1.634,1.634,1.634,0,1.6278,1.6283,1.6283,1.6285,1.6295,1.6295,1.6298,1.6304,1.6306,1.6309,1.6311,1.6314,1.6315,1.6318,1.6324,1.6328,1.6324,1.633,1.6327,1.6327,1.6325,1.6325,1.6312,1.6326,1.6326,1.6326,1.6326,0,1.6265,1.6263,1.6277,1.6276,1.6276,1.6285,1.6284,1.6288,1.6293,1.6295,1.6303,1.6303,1.6312,1.6314,1.6319,1.6319,1.6319,1.6322,1.6323,1.6321,1.6321,1.6322,1.6323,1.6325,1.6326,1.6326,1.6326,0,1.6247,1.6256,1.6256,1.6266,1.6269,1.6268,1.6276,1.6277,1.6283,1.6284,1.6285,1.6293,1.6296,1.6303,1.6307,1.6311,1.6309,1.6312,1.6308,1.6309,1.6306,1.6306,1.6293,1.6292,1.6306,1.6306,1.6305,0,1.6238,1.6237,1.6248,1.625,1.6254,1.6257,1.6259,1.6269,1.6271,1.6278,1.6278,1.6281,1.6285,1.6289,1.6295,1.6299,1.6301,1.6297,1.6302,1.63,1.6302,1.6302,1.6303,1.6295,1.6295,1.6295,1.6295,0,1.6221,1.6226,1.623,1.6236,1.6239,1.6244,1.6249,1.625,1.626,1.6263,1.6266,1.6269,1.6275,1.6278,1.6283,1.6287,1.6293,1.6293,1.6293,1.6291,1.6289,1.6291,1.6305,1.6293,1.6294,1.6294,1.6294,1.6294,1.6208,1.6208,1.6217,1.6221,1.6227,1.6232,1.6233,1.624,1.6244,1.6249,1.6255,1.6258,1.6265,1.6272,1.6275,1.6278,1.6281,1.628,1.628,1.628,1.6279,1.6289,1.6279,1.6279,1.6279,1.6279,1.6279,0,1.6192,1.6198,1.6202,1.621,1.6214,1.6221,1.6227,1.623,1.6233,1.6239,1.6243,1.6248,1.6252,1.626,1.6265,1.6266,1.6268,1.6266,1.6267,1.6268,1.6276,1.6276,1.6264,1.6264,1.6264,1.6264,1.6264,1.6264,1.6184,1.6186,1.6193,1.6198,1.6204,1.6208,1.6212,1.6217,1.6222,1.6227,1.6231,1.6237,1.6244,1.6249,1.6254,1.6256,1.6257,1.6255,1.6257,1.6265,1.6267,1.6268,1.6268,1.6255,1.6255,1.6249,1.6249,1.6249]}]]